EW3148 Weather Reports


time (UTC)temp
C
wind
direction
speed
KPH
gust
KPH
rain 1hr
cm
rain 24hr
cm
rain mn
cm
humidity
%
barometer
mb
20260509105145 22 71 1.6 8.0 0.00 0.03 0.03 95 1009.5
20260509104135 22 5 0.0 4.8 0.00 0.03 0.03 95 1009.6
20260509101939 22 41 0.0 3.2 0.00 0.03 0.03 95 1009.0
20260509101002 22 96 0.0 1.6 0.00 0.03 0.03 95 1008.7
20260509095942 22 96 0.0 1.6 0.00 0.03 0.03 95 1008.5
20260509094957 22 96 0.0 3.2 0.00 0.03 0.03 95 1008.2
20260509094014 22 83 0.0 1.6 0.00 0.03 0.03 95 1008.1
20260509093014 22 83 0.0 0.0 0.00 0.03 0.03 94 1008.3
20260509092037 22 100 0.0 3.2 0.00 0.03 0.03 94 1008.0
20260509085920 22 80 0.0 0.0 0.00 0.00 0.00 94 1008.0
20260509084907 22 80 0.0 1.6 0.00 0.00 0.00 94 1008.2
20260509083850 22 49 0.0 3.2 0.00 0.00 0.00 94 1008.3
20260509082847 22 77 0.0 1.6 0.00 0.00 0.00 94 1008.4
20260509081840 22 76 0.0 0.0 0.00 0.00 0.00 94 1008.4
20260509075736 22 78 0.0 0.0 0.00 0.00 0.00 93 1008.3
20260509072431 22 125 0.0 6.4 0.00 0.00 0.00 93 1008.2
20260509071417 22 172 0.0 3.2 0.00 0.00 0.00 93 1008.3
20260509070442 22 180 0.0 4.8 0.00 0.00 0.00 93 1008.5
20260509065506 22 169 0.0 4.8 0.00 0.00 0.00 93 1008.6
20260509064440 22 150 3.2 11.3 0.00 0.00 0.00 93 1008.5
20260509063422 22 175 1.6 16.1 0.00 0.00 0.00 92 1008.2
20260509062445 22 182 3.2 16.1 0.00 0.00 0.00 92 1008.0
20260509061414 22 179 4.8 14.5 0.00 0.00 0.00 92 1008.1
20260509060351 22 186 3.2 20.9 0.00 0.00 0.00 92 1008.1
20260509055411 22 195 4.8 20.9 0.00 0.00 0.00 91 1008.1
20260509053317 22 217 6.4 17.7 0.00 0.00 0.00 92 1008.0
20260509052319 22 184 4.8 16.1 0.00 0.00 0.00 92 1008.2
20260509051311 22 159 3.2 12.9 0.00 0.00 0.00 92 1008.0
20260509050316 22 166 3.2 11.3 0.00 0.00 0.00 92 1007.8
20260509045307 22 140 1.6 8.0 0.00 0.00 0.00 91 1007.8
20260509044325 22 180 3.2 6.4 0.00 0.00 0.00 91 1007.7
20260509043328 22 174 3.2 9.7 0.00 0.00 0.00 91 1007.7
20260509042306 22 164 3.2 9.7 0.00 0.00 0.00 90 1007.8
20260509041306 22 132 4.8 11.3 0.00 0.00 0.00 90 1007.9
20260509040323 22 173 4.8 14.5 0.00 0.00 0.00 89 1008.1
20260509034131 23 179 4.8 9.7 0.00 0.00 0.00 88 1008.2
20260509033111 23 149 3.2 8.0 0.00 0.00 0.00 88 1008.2
20260509025740 23 170 4.8 11.3 0.00 0.00 0.00 87 1007.6
20260509024727 23 165 3.2 9.7 0.00 0.00 0.00 87 1007.7
20260509023731 23 157 1.6 6.4 0.00 0.00 0.00 86 1007.6
20260509022731 23 143 3.2 6.4 0.00 0.00 0.00 87 1007.7
20260509021722 23 181 1.6 9.7 0.00 0.00 0.00 86 1007.5
20260509020713 23 163 3.2 9.7 0.00 0.00 0.00 86 1007.3
20260509015723 23 112 3.2 11.3 0.00 0.00 0.00 85 1007.0
20260509014719 23 140 4.8 12.9 0.00 0.00 0.00 84 1006.8
20260509012620 24 98 3.2 11.3 0.00 0.00 0.00 83 1006.9
20260509011608 24 134 3.2 6.4 0.00 0.00 0.00 82 1006.8
20260509010622 24 149 1.6 12.9 0.00 0.00 0.00 82 1006.9
20260509005634 25 119 1.6 12.9 0.00 0.00 0.00 81 1006.9
20260509003515 25 171 3.2 9.7 0.00 0.00 0.00 79 1006.8
20260509002446 25 177 1.6 9.7 0.00 0.00 0.00 79 1006.8
20260509001428 25 118 3.2 9.7 0.00 0.00 0.00 78 1006.9
20260508234145 25 144 4.8 12.9 0.00 0.00 0.00 77 1006.9
20260508233145 25 81 4.8 11.3 0.00 0.00 0.00 76 1006.8
20260508231033 26 210 4.8 12.9 0.00 0.00 0.00 75 1006.9
20260508230014 26 172 6.4 16.1 0.00 0.00 0.00 76 1006.9
20260508224952 26 196 4.8 16.1 0.00 0.00 0.00 74 1007.0
20260508223945 26 172 6.4 16.1 0.00 0.00 0.00 74 1006.9
20260508222940 26 188 4.8 14.5 0.00 0.00 0.00 74 1006.9
20260508221906 26 167 6.4 17.7 0.00 0.00 0.00 74 1006.9
20260508220853 26 163 4.8 16.1 0.00 0.00 0.00 73 1007.1
20260508214729 27 174 6.4 19.3 0.00 0.00 0.00 72 1007.1
20260508213703 27 189 4.8 14.5 0.00 0.00 0.00 70 1007.2
20260508212711 27 145 4.8 16.1 0.00 0.00 0.00 71 1007.2
20260508210600 26 92 4.8 16.1 0.00 0.00 0.00 73 1007.6
20260508205528 26 126 4.8 12.9 0.00 0.00 0.00 73 1007.9
20260508204545 26 160 3.2 11.3 0.00 0.00 0.00 73 1007.9
20260508203554 26 136 4.8 12.9 0.00 0.00 0.00 73 1008.0
20260508202541 26 129 4.8 12.9 0.00 0.00 0.00 73 1008.1
20260508201524 26 56 3.2 17.7 0.00 0.00 0.00 73 1008.2
20260508200545 26 81 4.8 17.7 0.00 0.00 0.00 71 1008.3
20260508193228 26 112 3.2 12.9 0.00 0.00 0.00 71 1008.7
20260508185841 25 90 4.8 12.9 0.00 0.00 0.00 74 1009.0
20260508184855 25 142 3.2 12.9 0.00 0.00 0.00 72 1009.2
20260508183909 25 128 3.2 12.9 0.00 0.00 0.00 72 1009.2
20260508182914 25 195 3.2 14.5 0.00 0.00 0.00 71 1009.5
20260508181846 25 161 4.8 14.5 0.00 0.00 0.00 71 1009.7
20260508180857 25 152 3.2 12.9 0.00 0.00 0.00 73 1009.8
20260508175848 25 73 3.2 12.9 0.00 0.00 0.00 73 1010.0
20260508174906 25 47 1.6 6.4 0.00 0.00 0.00 72 1010.1
20260508173836 25 62 1.6 8.0 0.00 0.00 0.00 71 1010.1
20260508171716 26 71 0.0 3.2 0.00 0.00 0.00 70 1010.2
20260508170719 26 250 0.0 3.2 0.00 0.00 0.00 71 1010.3
20260508165702 26 165 0.0 4.8 0.00 0.00 0.00 72 1010.4
20260508164718 25 0 0.0 4.8 0.00 0.00 0.00 73 1010.5
20260508163643 25 287 0.0 4.8 0.00 0.00 0.00 72 1010.6
20260508162655 24 251 0.0 4.8 0.00 0.00 0.00 75 1010.8
20260508161628 23 254 0.0 4.8 0.00 0.00 0.00 76 1011.0
20260508160643 22 255 0.0 3.2 0.00 0.00 0.00 77 1011.2
20260508155653 21 97 0.0 0.0 0.00 0.00 0.00 79 1011.3
20260508154709 20 122 0.0 4.8 0.00 0.00 0.00 79 1011.4
20260508153722 20 173 0.0 4.8 0.00 0.00 0.00 78 1011.6
20260508152715 20 254 0.0 3.2 0.00 0.00 0.00 78 1011.8
20260508151652 20 212 0.0 6.4 0.00 0.00 0.00 78 1011.9
20260508150714 19 123 1.6 8.0 0.00 0.00 0.00 79 1012.0
20260508145735 19 195 1.6 8.0 0.00 0.00 0.00 79 1012.2
20260508144724 18 146 0.0 4.8 0.00 0.00 0.00 80 1012.1
20260508142556 17 123 1.6 6.4 0.00 0.00 0.00 80 1012.1
20260508141522 17 89 1.6 8.0 0.00 0.00 0.00 82 1012.0
20260508135417 17 10 0.0 6.4 0.00 0.00 0.00 82 1012.0
20260508134345 17 63 0.0 6.4 0.00 0.00 0.00 82 1012.1
20260508133324 17 38 1.6 9.7 0.00 0.00 0.00 83 1012.0
20260508132313 16 58 1.6 9.7 0.00 0.00 0.00 83 1012.0
20260508131311 16 51 0.0 4.8 0.00 0.00 0.00 84 1012.2
20260508130244 16 355 1.6 8.0 0.00 0.00 0.00 84 1012.1
20260508125254 16 347 0.0 8.0 0.00 0.00 0.00 85 1012.2
20260508124258 16 42 0.0 3.2 0.00 0.00 0.00 86 1012.3
20260508122047 16 13 0.0 4.8 0.00 0.00 0.00 86 1012.2
20260508121108 16 355 0.0 1.6 0.00 0.00 0.00 86 1012.3
20260508120131 16 51 0.0 0.0 0.00 0.00 0.00 86 1012.4
20260508115147 16 33 0.0 3.2 0.00 0.00 0.00 85 1012.5
20260508114116 16 5 0.0 3.2 0.00 0.00 0.00 84 1012.7
20260508113101 16 330 0.0 0.0 0.00 0.00 0.00 83 1012.7
20260508112123 16 330 0.0 0.0 0.00 0.00 0.00 83 1012.8
20260508111137 16 330 0.0 0.0 0.00 0.00 0.00 82 1012.7
20260508110109 16 330 0.0 0.0 0.00 0.00 0.00 82 1012.7